TimeEST,TemperatureF,Dew PointF,Humidity,Sea Level PressureIn,VisibilityMPH,Wind Direction,Wind SpeedMPH,Gust SpeedMPH,PrecipitationIn,Events,Conditions,WindDirDegrees,DateUTC
12:03 AM,28.2,25.7,90,30.41,5.0,Calm,Calm,-,N/A,,Clear,0,2012-11-15 05:03:00
12:37 AM,27.1,25.5,94,30.40,5.0,Calm,Calm,-,N/A,,Clear,0,2012-11-15 05:37:00
12:54 AM,27.1,25.7,94,30.40,5.0,Calm,Calm,-,N/A,,Clear,0,2012-11-15 05:54:00
1:15 AM,27.1,25.5,94,30.39,5.0,Calm,Calm,-,N/A,,Clear,0,2012-11-15 06:15:00
1:34 AM,26.2,24.8,94,30.39,4.0,Calm,Calm,-,N/A,,Clear,0,2012-11-15 06:34:00
1:54 AM,25.7,24.6,96,30.39,3.0,Calm,Calm,-,N/A,,Clear,0,2012-11-15 06:54:00
2:15 AM,25.3,24.1,95,30.38,3.0,Calm,Calm,-,N/A,,Clear,0,2012-11-15 07:15:00
2:34 AM,25.5,24.3,95,30.38,3.0,Calm,Calm,-,N/A,,Clear,0,2012-11-15 07:34:00
2:55 AM,25.2,23.9,95,30.38,3.0,Calm,Calm,-,N/A,,Clear,0,2012-11-15 07:55:00
3:15 AM,24.8,23.5,95,30.38,3.0,Calm,Calm,-,N/A,,Clear,0,2012-11-15 08:15:00
3:34 AM,24.6,23.2,94,30.38,3.0,Calm,Calm,-,N/A,,Clear,0,2012-11-15 08:34:00
3:55 AM,24.8,23.5,95,30.37,3.0,Calm,Calm,-,N/A,,Clear,0,2012-11-15 08:55:00
4:15 AM,24.6,23.4,95,30.36,3.0,Calm,Calm,-,N/A,,Clear,0,2012-11-15 09:15:00
4:34 AM,24.4,23.0,94,30.36,3.0,Calm,Calm,-,N/A,,Clear,0,2012-11-15 09:34:00
4:55 AM,23.9,22.8,96,30.36,3.0,Calm,Calm,-,N/A,,Clear,0,2012-11-15 09:55:00
5:15 AM,23.9,22.8,96,30.36,4.0,Calm,Calm,-,N/A,,Clear,0,2012-11-15 10:15:00
5:34 AM,23.4,21.9,94,30.37,4.0,Calm,Calm,-,N/A,,Clear,0,2012-11-15 10:34:00
5:55 AM,23.7,22.3,94,30.36,4.0,Calm,Calm,-,N/A,,Clear,0,2012-11-15 10:55:00
6:14 AM,23.5,22.1,94,30.36,4.0,Calm,Calm,-,N/A,,Clear,0,2012-11-15 11:14:00
6:34 AM,23.5,22.1,94,30.37,3.0,Calm,Calm,-,N/A,,Clear,0,2012-11-15 11:34:00
6:55 AM,23.0,21.6,94,30.36,4.0,Calm,Calm,-,N/A,,Clear,0,2012-11-15 11:55:00
7:14 AM,23.0,21.6,94,30.37,4.0,Calm,Calm,-,N/A,,Clear,0,2012-11-15 12:14:00
7:34 AM,23.0,21.7,95,30.38,3.0,Calm,Calm,-,N/A,,Clear,0,2012-11-15 12:34:00
7:55 AM,23.9,22.5,94,30.38,3.0,Calm,Calm,-,N/A,,Clear,0,2012-11-15 12:55:00
8:14 AM,24.8,23.5,95,30.38,3.0,Calm,Calm,-,N/A,,Clear,0,2012-11-15 13:14:00
8:34 AM,26.1,24.6,94,30.38,3.0,Calm,Calm,-,N/A,,Clear,0,2012-11-15 13:34:00
8:54 AM,28.6,27.1,94,30.39,2.5,Calm,Calm,-,N/A,,Clear,0,2012-11-15 13:54:00
9:14 AM,30.9,29.5,94,30.39,3.0,Calm,Calm,-,N/A,,Clear,0,2012-11-15 14:14:00
9:35 AM,33.1,30.9,92,30.39,4.0,ESE,3.5,-,N/A,,Clear,110,2012-11-15 14:35:00
9:54 AM,34.5,30.6,85,30.39,7.0,Calm,Calm,-,N/A,,Clear,0,2012-11-15 14:54:00
10:14 AM,35.4,30.9,84,30.39,7.0,Calm,Calm,-,N/A,,Clear,0,2012-11-15 15:14:00
10:35 AM,36.5,30.4,78,30.39,7.0,Calm,Calm,-,N/A,,Clear,0,2012-11-15 15:35:00
10:54 AM,37.8,28.9,71,30.39,10.0,ESE,4.6,-,N/A,,Clear,110,2012-11-15 15:54:00
11:15 AM,38.5,30.2,72,30.38,10.0,ESE,4.6,-,N/A,,Clear,110,2012-11-15 16:15:00
11:34 AM,39.4,30.2,70,30.38,10.0,Calm,Calm,-,N/A,,Clear,0,2012-11-15 16:34:00
11:54 AM,40.3,30.4,68,30.38,10.0,South,4.6,-,N/A,,Clear,170,2012-11-15 16:54:00
12:15 PM,41.0,30.4,66,30.37,10.0,Calm,Calm,-,N/A,,Clear,0,2012-11-15 17:15:00
12:34 PM,41.2,30.2,65,30.36,10.0,Calm,Calm,-,N/A,,Clear,0,2012-11-15 17:34:00
12:55 PM,41.9,30.6,64,30.35,10.0,Calm,Calm,-,N/A,,Clear,0,2012-11-15 17:55:00
1:15 PM,42.6,30.0,61,30.34,10.0,Calm,Calm,-,N/A,,Clear,0,2012-11-15 18:15:00
1:34 PM,44.4,30.2,57,30.34,10.0,Calm,Calm,-,N/A,,Clear,0,2012-11-15 18:34:00
1:55 PM,44.1,30.2,58,30.33,10.0,Calm,Calm,-,N/A,,Clear,0,2012-11-15 18:55:00
2:14 PM,45.5,30.4,56,30.33,10.0,West,4.6,-,N/A,,Clear,270,2012-11-15 19:14:00
2:34 PM,44.4,30.7,59,30.33,10.0,North,5.8,-,N/A,,Clear,360,2012-11-15 19:34:00
2:55 PM,44.1,29.7,57,30.32,10.0,NW,4.6,-,N/A,,Clear,310,2012-11-15 19:55:00
3:14 PM,44.2,29.7,57,30.32,10.0,Calm,Calm,-,N/A,,Clear,0,2012-11-15 20:14:00
3:34 PM,44.4,30.2,57,30.32,10.0,Calm,Calm,-,N/A,,Clear,0,2012-11-15 20:34:00
3:55 PM,45.0,29.1,54,30.32,10.0,Calm,Calm,-,N/A,,Clear,0,2012-11-15 20:55:00
4:14 PM,45.0,28.8,53,30.33,10.0,Calm,Calm,-,N/A,,Clear,0,2012-11-15 21:14:00
4:34 PM,44.1,28.9,55,30.33,10.0,Calm,Calm,-,N/A,,Clear,0,2012-11-15 21:34:00
4:55 PM,42.8,28.4,57,30.32,10.0,Calm,Calm,-,N/A,,Clear,0,2012-11-15 21:55:00
5:14 PM,41.5,28.4,60,30.33,10.0,Calm,Calm,-,N/A,,Clear,0,2012-11-15 22:14:00
5:35 PM,39.9,29.5,66,30.33,10.0,Calm,Calm,-,N/A,,Clear,0,2012-11-15 22:35:00
5:55 PM,38.5,28.4,67,30.33,10.0,Calm,Calm,-,N/A,,Clear,0,2012-11-15 22:55:00
6:35 PM,34.7,28.4,78,30.34,10.0,Calm,Calm,-,N/A,,Clear,0,2012-11-15 23:35:00
6:54 PM,33.4,28.4,82,30.34,10.0,Calm,Calm,-,N/A,,Clear,0,2012-11-15 23:54:00
7:15 PM,34.0,28.2,79,30.34,10.0,Calm,Calm,-,N/A,,Clear,0,2012-11-16 00:15:00
7:35 PM,31.8,27.7,85,30.34,7.0,Calm,Calm,-,N/A,,Clear,0,2012-11-16 00:35:00
7:54 PM,31.5,27.3,85,30.34,7.0,Calm,Calm,-,N/A,,Clear,0,2012-11-16 00:54:00
8:15 PM,31.1,27.9,88,30.35,7.0,Calm,Calm,-,N/A,,Clear,0,2012-11-16 01:15:00
8:35 PM,30.2,28.0,92,30.35,7.0,Calm,Calm,-,N/A,,Clear,0,2012-11-16 01:35:00
8:54 PM,29.3,27.3,92,30.35,5.0,Calm,Calm,-,N/A,,Clear,0,2012-11-16 01:54:00
9:15 PM,29.1,27.1,92,30.36,5.0,SSE,3.5,-,N/A,,Clear,150,2012-11-16 02:15:00
9:34 PM,28.8,27.1,94,30.36,5.0,Calm,Calm,-,N/A,,Clear,0,2012-11-16 02:34:00
9:54 PM,28.4,27.0,94,30.36,5.0,Calm,Calm,-,N/A,,Clear,0,2012-11-16 02:54:00
10:15 PM,28.2,26.6,94,30.36,5.0,Calm,Calm,-,N/A,,Clear,0,2012-11-16 03:15:00
10:34 PM,27.9,26.6,95,30.36,5.0,Calm,Calm,-,N/A,,Clear,0,2012-11-16 03:34:00
10:55 PM,27.5,26.4,96,30.36,5.0,Calm,Calm,-,N/A,,Clear,0,2012-11-16 03:55:00
11:14 PM,27.3,25.9,94,30.36,5.0,Calm,Calm,-,N/A,,Clear,0,2012-11-16 04:14:00
11:34 PM,27.3,26.1,95,30.36,4.0,Calm,Calm,-,N/A,,Clear,0,2012-11-16 04:34:00
11:55 PM,27.3,25.7,94,30.36,5.0,Calm,Calm,-,N/A,,Clear,0,2012-11-16 04:55:00